Location: Usti nad Labem
(50.6670°N, 14.0330°E)
Time: 21:04:51
(UTC+01:00)

Envisat - Pass Details

Date: 03 December 2020
Orbit: 764 x 766 km, 98.1° (Epoch: 15 January)

Event Time Altitude Azimuth Distance (km) Brightness Sun altitude
Rises 18:01:54 0° 199° (SSW) 3,222 6.7 -18.2°
Reaches altitude 10° 18:04:34 10° 212° (SSW) 2,301 6.1 -18.7°
Maximum altitude 18:08:45 25° 268° (W) 1,500 5.3 -19.3°
Drops below altitude 10° 18:12:57 10° 324° (NW) 2,315 5.8 -20.0°
Sets 18:15:40 0° 337° (NNW) 3,247 6.4 -20.4°
